Location: Songkhla
(7.2000°N, 100.6000°E)
Time: 03:39:33
(UTC+07:00)

JAISAT 1 - All Passes

Search period start: 18 May 2021 00:00
Search period end: 28 May 2021 00:00
Orbit: 509 x 540 km, 97.6° (Epoch: 16 May)

Date Brightness Start Highest point End Pass type
(mag) Time Alt. Az. Time Alt. Az. Time Alt. Az.
18 May - 03:42:29 10° N 03:46:09 45° WNW 03:49:50 10° SSW visible
18 May - 15:40:33 10° SSW 15:44:02 36° W 15:47:29 10° NNW daylight
19 May - 03:30:23 10° N 03:34:12 74° WNW 03:38:03 10° SSW visible
19 May - 15:28:21 10° S 15:32:04 58° W 15:35:44 10° NNW daylight
20 May - 03:18:26 10° NNE 03:22:14 69° E 03:26:05 10° S visible
20 May - 15:16:20 10° SSE 15:20:05 85° E 15:23:49 10° N daylight
21 May - 03:06:37 10° NNE 03:10:16 42° E 03:13:57 10° S visible
21 May - 15:04:29 10° SSE 15:08:07 52° ENE 15:11:45 10° N daylight
22 May - 02:55:00 10° NE 02:58:18 27° E 03:01:37 10° SSE visible
22 May - 14:52:47 10° SE 14:56:09 32° ENE 14:59:31 10° NNE daylight
23 May - 02:43:38 10° NE 02:46:20 18° E 02:49:02 10° SE visible
23 May - 04:18:14 10° NW 04:20:17 14° WNW 04:22:19 10° WSW visible
23 May - 14:41:20 10° SE 14:44:12 21° ENE 14:47:03 10° NNE daylight
23 May - 16:17:21 10° WSW 16:18:11 11° W 16:19:01 10° W daylight
24 May - 02:32:49 10° ENE 02:34:21 12° E 02:35:53 10° SE night (unlit)
24 May - 04:05:24 10° NNW 04:08:19 21° WNW 04:11:17 10° SW visible
24 May - 14:30:16 10° ESE 14:32:14 14° ENE 14:34:12 10° NE daylight
24 May - 16:03:47 10° SW 16:06:12 16° W 16:08:36 10° WNW daylight
25 May - 03:52:55 10° NNW 03:56:22 32° WNW 03:59:50 10° SW visible
25 May - 15:51:06 10° SSW 15:54:12 25° W 15:57:18 10° NW daylight
26 May - 03:40:40 10° N 03:44:23 50° WNW 03:48:10 10° SSW visible
26 May - 15:38:43 10° S 15:42:13 39° W 15:45:42 10° NNW daylight
27 May - 03:28:34 10° N 03:32:25 81° WNW 03:36:19 10° SSW visible
27 May - 15:26:32 10° S 15:30:14 64° W 15:33:54 10° NNW daylight
